| time (UTC) | temp F | wind direction | speed knots | gust knots | rain 1hr in | rain 24hr in | rain mn in | humidity % | barometer mb |
| 20260506050926 | 60 | 10 | 1.7 | 5.2 | 0.00 | 0.00 | 0.00 | 37 | 1009.1 |
| 20260506044846 | 59 | 10 | 0.0 | 4.3 | 0.00 | 0.00 | 0.00 | 38 | 1009.0 |
| 20260506043903 | 60 | 10 | 0.0 | 0.0 | 0.00 | 0.00 | 0.00 | 38 | 1009.0 |
| 20260506042849 | 61 | 10 | 0.0 | 0.0 | 0.00 | 0.00 | 0.00 | 35 | 1008.6 |
| 20260506041858 | 61 | 10 | 0.0 | 0.0 | 0.00 | 0.00 | 0.00 | 35 | 1008.6 |
| 20260506040858 | 62 | 10 | 0.0 | 2.6 | 0.00 | 0.00 | 0.00 | 35 | 1008.5 |
| 20260506035926 | 63 | 10 | 0.0 | 2.6 | 0.00 | 0.00 | 0.00 | 33 | 1008.2 |
| 20260506034914 | 64 | 10 | 0.9 | 4.3 | 0.00 | 0.00 | 0.00 | 31 | 1008.0 |
| 20260506033901 | 65 | 10 | 3.5 | 6.1 | 0.00 | 0.00 | 0.00 | 30 | 1007.9 |
| 20260506032921 | 66 | 10 | 0.9 | 4.3 | 0.00 | 0.00 | 0.00 | 29 | 1007.6 |
| 20260506031914 | 66 | 11 | 0.0 | 3.5 | 0.00 | 0.00 | 0.00 | 28 | 1007.4 |
| 20260506030927 | 68 | 11 | 0.0 | 5.2 | 0.00 | 0.00 | 0.00 | 28 | 1007.2 |
| 20260506025914 | 69 | 11 | 0.9 | 3.5 | 0.00 | 0.00 | 0.00 | 27 | 1007.0 |
| 20260506024914 | 70 | 11 | 0.9 | 6.1 | 0.00 | 0.00 | 0.00 | 24 | 1006.9 |
| 20260506023851 | 71 | 12 | 5.2 | 8.7 | 0.00 | 0.00 | 0.00 | 22 | 1006.8 |
| 20260506022921 | 73 | 17 | 4.3 | 7.8 | 0.00 | 0.00 | 0.00 | 21 | 1006.6 |
| 20260506021847 | 73 | 15 | 4.3 | 9.6 | 0.00 | 0.00 | 0.00 | 20 | 1006.3 |
| 20260506020906 | 74 | 23 | 4.3 | 9.6 | 0.00 | 0.00 | 0.00 | 20 | 1006.3 |
| 20260506015931 | 75 | 33 | 5.2 | 11.3 | 0.00 | 0.00 | 0.00 | 20 | 1006.2 |
| 20260506014919 | 75 | 25 | 5.2 | 13.9 | 0.00 | 0.00 | 0.00 | 20 | 1006.0 |
| 20260506013905 | 76 | 29 | 5.2 | 11.3 | 0.00 | 0.00 | 0.00 | 20 | 1006.0 |
| 20260506012923 | 76 | 31 | 3.5 | 11.3 | 0.00 | 0.00 | 0.00 | 20 | 1005.9 |
| 20260506011855 | 76 | 48 | 6.1 | 13.9 | 0.00 | 0.00 | 0.00 | 20 | 1005.8 |
| 20260506010931 | 77 | 46 | 6.1 | 16.5 | 0.00 | 0.00 | 0.00 | 20 | 1005.8 |
| 20260506005919 | 77 | 26 | 7.0 | 13.9 | 0.00 | 0.00 | 0.00 | 19 | 1005.7 |
| 20260506004850 | 77 | 33 | 7.8 | 14.8 | 0.00 | 0.00 | 0.00 | 19 | 1005.7 |
| 20260506003905 | 77 | 30 | 7.0 | 13.9 | 0.00 | 0.00 | 0.00 | 19 | 1005.7 |
| 20260506002917 | 78 | 39 | 7.0 | 17.4 | 0.00 | 0.00 | 0.00 | 18 | 1005.8 |
| 20260506001900 | 78 | 20 | 8.7 | 18.2 | 0.00 | 0.00 | 0.00 | 17 | 1005.7 |
| 20260506000912 | 78 | 40 | 8.7 | 13.9 | 0.00 | 0.00 | 0.00 | 18 | 1005.8 |
| 20260505235908 | 78 | 22 | 7.8 | 18.2 | 0.00 | 0.00 | 0.00 | 16 | 1005.8 |
| 20260505234914 | 78 | 39 | 7.0 | 13.0 | 0.00 | 0.00 | 0.00 | 18 | 1005.7 |
| 20260505233903 | 79 | 22 | 7.0 | 17.4 | 0.00 | 0.00 | 0.00 | 17 | 1005.8 |
| 20260505232850 | 79 | 16 | 7.0 | 13.9 | 0.00 | 0.00 | 0.00 | 18 | 1005.9 |
| 20260505231855 | 79 | 22 | 8.7 | 15.6 | 0.00 | 0.00 | 0.00 | 17 | 1005.8 |
| 20260505230852 | 79 | 30 | 6.1 | 13.9 | 0.00 | 0.00 | 0.00 | 18 | 1005.8 |
| 20260505225919 | 78 | 16 | 7.8 | 13.9 | 0.00 | 0.00 | 0.00 | 18 | 1006.0 |
| 20260505224848 | 79 | 20 | 9.6 | 19.1 | 0.00 | 0.00 | 0.00 | 17 | 1006.1 |
| 20260505223907 | 80 | 8 | 8.7 | 19.1 | 0.00 | 0.00 | 0.00 | 19 | 1006.2 |
| 20260505222851 | 80 | 7 | 8.7 | 15.6 | 0.00 | 0.00 | 0.00 | 18 | 1006.3 |
| 20260505221913 | 80 | 348 | 4.3 | 11.3 | 0.00 | 0.00 | 0.00 | 20 | 1006.3 |
| 20260505220915 | 79 | 352 | 5.2 | 10.4 | 0.00 | 0.00 | 0.00 | 20 | 1006.3 |
| 20260505215928 | 79 | 18 | 9.6 | 16.5 | 0.00 | 0.00 | 0.00 | 18 | 1006.7 |
| 20260505214853 | 79 | 6 | 5.2 | 13.0 | 0.00 | 0.00 | 0.00 | 20 | 1006.8 |
| 20260505213907 | 79 | 348 | 6.1 | 13.0 | 0.00 | 0.00 | 0.00 | 22 | 1006.8 |
| 20260505212927 | 78 | 9 | 4.3 | 10.4 | 0.00 | 0.00 | 0.00 | 21 | 1006.8 |
| 20260505211853 | 79 | 17 | 4.3 | 7.8 | 0.00 | 0.00 | 0.00 | 24 | 1007.0 |
| 20260505210904 | 77 | 22 | 0.0 | 7.0 | 0.00 | 0.00 | 0.00 | 25 | 1007.3 |
| 20260505205907 | 77 | 16 | 4.3 | 11.3 | 0.00 | 0.00 | 0.00 | 24 | 1007.5 |
| 20260505204922 | 76 | 6 | 3.5 | 10.4 | 0.00 | 0.00 | 0.00 | 24 | 1007.5 |
| 20260505203921 | 77 | 355 | 3.5 | 13.9 | 0.00 | 0.00 | 0.00 | 22 | 1007.6 |
| 20260505202910 | 77 | 42 | 4.3 | 10.4 | 0.00 | 0.00 | 0.00 | 24 | 1007.6 |
| 20260505201900 | 76 | 321 | 2.6 | 9.6 | 0.00 | 0.00 | 0.00 | 25 | 1007.6 |
| 20260505200850 | 76 | 4 | 6.1 | 9.6 | 0.00 | 0.00 | 0.00 | 26 | 1007.9 |
| 20260505195928 | 76 | 275 | 3.5 | 6.1 | 0.00 | 0.00 | 0.00 | 25 | 1007.9 |
| 20260505194924 | 76 | 273 | 0.0 | 7.8 | 0.00 | 0.00 | 0.00 | 23 | 1008.0 |
| 20260505193925 | 75 | 269 | 0.9 | 5.2 | 0.00 | 0.00 | 0.00 | 27 | 1008.0 |
| 20260505192903 | 75 | 268 | 3.5 | 8.7 | 0.00 | 0.00 | 0.00 | 25 | 1008.0 |
| 20260505191925 | 74 | 260 | 0.9 | 6.1 | 0.00 | 0.00 | 0.00 | 26 | 1008.2 |
| 20260505190917 | 74 | 258 | 0.0 | 8.7 | 0.00 | 0.00 | 0.00 | 25 | 1008.4 |
| 20260505185917 | 73 | 244 | 1.7 | 9.6 | 0.00 | 0.00 | 0.00 | 25 | 1008.5 |
| 20260505184848 | 73 | 237 | 0.9 | 7.8 | 0.00 | 0.00 | 0.00 | 27 | 1008.5 |
| 20260505183926 | 72 | 232 | 4.3 | 7.8 | 0.00 | 0.00 | 0.00 | 26 | 1008.5 |
| 20260505182913 | 72 | 231 | 4.3 | 8.7 | 0.00 | 0.00 | 0.00 | 27 | 1008.6 |
| 20260505181926 | 72 | 215 | 6.1 | 8.7 | 0.00 | 0.00 | 0.00 | 26 | 1008.6 |
| 20260505180851 | 71 | 205 | 4.3 | 10.4 | 0.00 | 0.00 | 0.00 | 27 | 1008.6 |
| 20260505175903 | 70 | 230 | 6.1 | 9.6 | 0.00 | 0.00 | 0.00 | 27 | 1008.6 |
| 20260505174913 | 70 | 236 | 4.3 | 8.7 | 0.00 | 0.00 | 0.00 | 27 | 1008.6 |
| 20260505173857 | 70 | 244 | 6.1 | 9.6 | 0.00 | 0.00 | 0.00 | 27 | 1008.7 |
| 20260505172906 | 70 | 202 | 5.2 | 7.0 | 0.00 | 0.00 | 0.00 | 27 | 1008.7 |
| 20260505171917 | 70 | 196 | 5.2 | 7.8 | 0.00 | 0.00 | 0.00 | 27 | 1008.6 |
| 20260505170917 | 69 | 196 | 3.5 | 7.8 | 0.00 | 0.00 | 0.00 | 27 | 1008.6 |
| 20260505165849 | 69 | 198 | 7.0 | 10.4 | 0.00 | 0.00 | 0.00 | 28 | 1008.5 |
| 20260505164907 | 69 | 195 | 6.1 | 13.0 | 0.00 | 0.00 | 0.00 | 28 | 1008.5 |
| 20260505163909 | 69 | 217 | 6.1 | 11.3 | 0.00 | 0.00 | 0.00 | 29 | 1008.4 |
| 20260505162925 | 68 | 209 | 5.2 | 13.0 | 0.00 | 0.00 | 0.00 | 28 | 1008.2 |
| 20260505161900 | 68 | 213 | 6.1 | 11.3 | 0.00 | 0.00 | 0.00 | 28 | 1008.2 |
| 20260505160915 | 67 | 219 | 7.0 | 13.0 | 0.00 | 0.00 | 0.00 | 28 | 1008.1 |
| 20260505152851 | 63 | 243 | 4.3 | 8.7 | 0.00 | 0.00 | 0.00 | 45 | 1007.8 |
| 20260505151848 | 61 | 192 | 2.6 | 6.1 | 0.00 | 0.00 | 0.00 | 51 | 1007.8 |
| 20260505150920 | 61 | 188 | 4.3 | 7.8 | 0.00 | 0.00 | 0.00 | 50 | 1007.8 |
| 20260505124926 | 51 | 17 | 0.0 | 0.9 | 0.00 | 0.00 | 0.00 | 57 | 1005.9 |
| 20260505123901 | 52 | 17 | 0.0 | 0.9 | 0.00 | 0.00 | 0.00 | 56 | 1005.7 |
| 20260505122851 | 53 | 17 | 0.0 | 3.5 | 0.00 | 0.00 | 0.00 | 56 | 1005.6 |
| 20260505121859 | 54 | 17 | 0.9 | 4.3 | 0.00 | 0.00 | 0.00 | 53 | 1005.2 |
| 20260505120901 | 55 | 17 | 0.0 | 0.0 | 0.00 | 0.00 | 0.00 | 52 | 1005.2 |
| 20260505115905 | 55 | 17 | 0.0 | 0.0 | 0.00 | 0.00 | 0.00 | 50 | 1005.1 |
| 20260505114852 | 56 | 17 | 0.0 | 0.9 | 0.00 | 0.00 | 0.00 | 50 | 1004.9 |
| 20260505113910 | 57 | 17 | 0.0 | 2.6 | 0.00 | 0.00 | 0.00 | 48 | 1004.7 |
| 20260505112907 | 58 | 17 | 1.7 | 6.1 | 0.00 | 0.00 | 0.00 | 46 | 1004.5 |
| 20260505111855 | 59 | 18 | 5.2 | 7.8 | 0.00 | 0.00 | 0.00 | 44 | 1004.4 |
| 20260505110903 | 59 | 19 | 3.5 | 7.0 | 0.00 | 0.00 | 0.00 | 43 | 1004.1 |
| 20260505101900 | 59 | 5 | 4.3 | 7.0 | 0.00 | 0.00 | 0.00 | 43 | 1004.1 |
| 20260505100930 | 60 | 5 | 2.6 | 5.2 | 0.00 | 0.00 | 0.00 | 41 | 1004.1 |
| 20260505095922 | 61 | 5 | 3.5 | 9.6 | 0.00 | 0.00 | 0.00 | 40 | 1003.8 |
| 20260505094911 | 61 | 0 | 3.5 | 10.4 | 0.00 | 0.00 | 0.00 | 38 | 1003.6 |
| 20260505093910 | 61 | 16 | 6.1 | 13.0 | 0.00 | 0.00 | 0.00 | 38 | 1003.5 |
| 20260505092924 | 61 | 11 | 7.8 | 13.9 | 0.00 | 0.00 | 0.00 | 37 | 1003.2 |
| 20260505091915 | 62 | 7 | 8.7 | 14.8 | 0.00 | 0.00 | 0.00 | 36 | 1003.0 |
| 20260505090849 | 62 | 9 | 9.6 | 16.5 | 0.00 | 0.00 | 0.00 | 35 | 1003.0 |
| 20260505085850 | 62 | 9 | 9.6 | 17.4 | 0.00 | 0.00 | 0.00 | 34 | 1002.9 |
| 20260505084905 | 62 | 8 | 10.4 | 14.8 | 0.00 | 0.00 | 0.00 | 34 | 1002.9 |
| 20260505083925 | 63 | 7 | 9.6 | 15.6 | 0.00 | 0.00 | 0.00 | 34 | 1003.0 |
| 20260505082933 | 63 | 7 | 8.7 | 16.5 | 0.00 | 0.00 | 0.00 | 34 | 1002.9 |
| 20260505081915 | 63 | 10 | 10.4 | 16.5 | 0.00 | 0.00 | 0.00 | 33 | 1002.9 |
| 20260505080931 | 64 | 6 | 12.2 | 18.2 | 0.00 | 0.00 | 0.00 | 31 | 1002.9 |
| 20260505075857 | 65 | 15 | 12.2 | 16.5 | 0.00 | 0.00 | 0.00 | 30 | 1003.0 |
| 20260505074928 | 65 | 12 | 9.6 | 15.6 | 0.00 | 0.00 | 0.00 | 29 | 1003.0 |
| 20260505073904 | 65 | 17 | 9.6 | 14.8 | 0.00 | 0.00 | 0.00 | 29 | 1003.0 |
| 20260505072853 | 65 | 15 | 9.6 | 16.5 | 0.00 | 0.00 | 0.00 | 29 | 1003.0 |
| 20260505071851 | 65 | 13 | 9.6 | 14.8 | 0.00 | 0.00 | 0.00 | 29 | 1003.0 |
| 20260505070923 | 65 | 15 | 9.6 | 15.6 | 0.00 | 0.00 | 0.00 | 30 | 1002.9 |
| 20260505065931 | 65 | 12 | 9.6 | 14.8 | 0.00 | 0.00 | 0.00 | 31 | 1002.9 |
| 20260505064917 | 65 | 15 | 7.8 | 14.8 | 0.00 | 0.00 | 0.00 | 31 | 1002.9 |
| 20260505063900 | 65 | 15 | 8.7 | 15.6 | 0.00 | 0.00 | 0.00 | 30 | 1002.8 |
| 20260505062929 | 65 | 12 | 10.4 | 13.9 | 0.00 | 0.00 | 0.00 | 29 | 1002.9 |
| 20260505061922 | 65 | 12 | 8.7 | 13.0 | 0.00 | 0.00 | 0.00 | 31 | 1002.9 |
| 20260505060849 | 65 | 8 | 7.0 | 13.0 | 0.00 | 0.00 | 0.00 | 30 | 1002.9 |
| 20260505055932 | 65 | 11 | 8.7 | 13.0 | 0.00 | 0.00 | 0.00 | 30 | 1002.8 |